Theta_e
288 289 289 289 288 288 286 286 282 285 285 289 291 293 295 296 296 294 294 294 294 293 293 292 290 290 289 289 288 287 286 285 285 284 284 283 280 279 279 278 278 277 276 275
284 287 286 284 287 287 287 288 288 288 287 294 295 296 296 297 297 297 297 298 298 295 293 291 292 292 288 289 287 286 286 285 285 283 282 281 279 279 278 277 276 276 275 274
276 284 284 280 285 286 287 289 288 284 290 294 293 294 294 295 293 290 289 289 290 292 292 291 290 288 287 288 285 284 285 285 283 282 280 279 278 278 277 276 275 275 274 274
276 279 271 283 290 290 288 289 291 290 285 286 287 290 292 289 287 287 288 288 288 288 289 290 288 287 285 282 282 284 284 283 281 279 279 277 276 276 276 275 274 274 273 273
275 276 281 285 285 282 283 282 283 282 282 282 284 286 285 287 287 287 287 288 288 286 286 287 286 283 283 280 281 281 281 281 279 279 277 275 275 275 275 274 274 273 274 274
277 273 271 276 281 281 282 278 278 282 281 281 281 275 279 285 286 286 287 287 285 286 284 285 286 280 280 279 278 278 278 278 276 278 277 275 276 275 275 274 274 274 273 273
270 271 275 277 278 281 275 271 278 281 280 280 277 280 283 285 285 286 286 286 287 286 284 283 281 278 278 276 276 276 275 275 275 276 276 276 275 275 274 274 273 272 272 271
268 264 265 278 277 270 275 280 282 280 280 278 279 280 281 282 282 283 284 284 285 285 285 286 280 276 278 276 276 273 273 273 274 274 275 274 273 273 272 272 271 270 270 269
270 270 276 278 278 280 282 277 278 278 279 277 276 277 278 279 280 281 282 283 284 283 284 285 282 278 276 277 273 273 272 274 273 274 274 273 272 272 271 272 271 270 270 269
268 272 275 276 279 280 280 278 278 277 275 275 275 276 276 275 276 277 277 278 280 280 281 281 285 280 279 278 275 274 275 274 273 273 272 272 272 272 271 270 270 269 269 268
270 274 275 276 277 277 277 276 274 275 274 274 273 272 273 273 273 274 275 276 276 277 278 278 281 283 283 279 276 275 275 273 272 273 272 271 272 271 272 272 272 270 270 270
269 275 275 275 277 275 272 271 271 271 271 272 272 271 271 271 272 272 271 272 270 270 272 273 275 277 281 281 276 275 273 272 271 271 270 270 270 270 276 275 276 276 275 273
274 275 273 273 274 274 270 270 271 270 270 268 269 269 269 269 269 269 268 267 267 267 268 269 269 271 274 277 276 275 274 272 271 271 269 269 269 268 268 273 276 277 277 276
271 270 271 272 270 270 270 270 268 268 267 267 267 266 266 265 265 264 264 264 265 264 264 264 264 265 269 272 274 275 274 275 271 270 269 269 269 269 269 269 270 271 276 275
268 268 267 268 268 268 267 266 264 263 264 264 264 263 262 261 261 261 262 261 261 261 261 262 262 263 267 269 272 274 274 273 271 270 269 269 269 269 269 270 270 270 271 273
264 264 264 264 263 263 263 262 261 261 262 261 260 260 260 260 259 259 259 259 258 258 259 260 261 263 264 266 269 272 273 273 270 269 268 268 268 268 269 270 269 269 270 269
258 258 258 258 259 260 260 260 260 260 259 258 258 258 257 257 257 256 257 258 258 259 260 260 261 263 264 265 267 270 271 271 269 268 267 267 268 268 269 268 267 268 266 266
259 259 259 258 258 257 257 258 258 257 256 257 257 257 256 255 255 255 257 258 259 260 261 262 264 265 266 266 267 269 270 269 268 267 266 266 267 267 267 265 265 262 261 267
256 256 257 257 257 256 256 255 255 256 257 256 256 255 256 256 256 256 258 257 258 257 259 262 265 264 268 267 268 269 268 267 266 266 266 266 266 265 264 264 263 261 263 265
255 255 255 255 255 255 254 255 256 256 257 257 256 256 255 256 257 257 257 258 258 259 261 263 265 266 266 268 270 267 266 265 264 264 264 264 263 263 262 262 261 261 260 259
252 253 253 253 254 255 256 256 257 256 257 257 256 256 256 256 257 257 256 256 259 261 261 262 263 263 264 264 265 264 264 263 262 262 262 262 261 260 260 260 261 260 258 257
252 251 252 253 254 254 256 258 257 256 256 256 256 256 256 255 257 256 258 257 260 261 261 261 262 263 263 264 263 262 262 262 262 262 261 260 260 259 258 259 258 257 256 256
251 252 253 253 254 255 257 257 256 256 256 256 256 256 256 256 257 255 255 259 261 262 261 262 262 262 262 261 261 261 260 260 260 260 260 259 259 259 258 258 257 256 256 255
251 253 253 255 257 257 255 256 256 256 257 257 256 256 255 254 255 257 257 258 259 260 261 261 262 262 260 260 259 259 259 259 259 259 259 259 258 258 257 257 256 256 255 255
253 254 255 256 256 256 256 256 256 256 256 256 256 256 256 256 255 256 257 257 259 257 257 260 262 260 258 258 258 258 258 258 258 258 258 257 257 256 256 256 255 255 254 254
254 254 256 256 256 257 256 256 255 256 256 255 255 256 256 256 257 257 257 257 257 257 257 257 257 257 257 257 257 257 257 257 257 257 257 256 256 256 255 255 254 254 254 253
255 256 256 255 256 257 257 256 255 255 256 255 255 256 256 256 256 257 256 256 256 256 256 256 257 257 257 257 256 256 256 256 256 256 256 255 255 255 255 254 254 253 253 253
Wind_Speed
25 30 29 30 30 27 26 27 27 25 30 25 28 32 30 16 18 8 13 12 11 10 10 10 9 11 11 15 12 14 15 16 19 16 14 14 14 15 15 15 15 16 14 12
20 22 25 29 30 33 35 37 37 37 34 28 29 27 29 26 24 19 15 13 16 18 15 14 12 13 9 11 12 13 15 17 15 13 14 15 14 15 15 15 14 14 14 14
23 19 18 22 27 33 34 33 29 32 34 25 27 26 25 20 15 16 16 16 20 15 13 12 12 9 10 12 8 13 15 14 14 14 15 15 14 14 15 15 14 14 13 13
20 23 33 23 16 24 31 33 32 22 18 19 19 21 11 20 18 18 17 17 16 15 15 15 11 11 9 4 8 11 12 11 12 14 14 14 15 15 14 13 15 15 13 13
13 21 21 11 8 10 11 4 13 13 15 19 25 20 11 22 19 16 16 14 13 9 8 11 13 13 11 4 6 7 8 11 12 13 13 14 15 15 13 13 13 13 14 16
19 24 25 6 13 18 13 12 21 13 17 19 21 15 14 24 21 21 18 14 16 15 10 11 13 7 8 6 2 2 3 3 4 9 11 13 14 14 12 12 11 10 10 9
13 17 10 13 16 17 7 13 21 11 16 16 13 10 20 20 16 17 14 18 18 15 11 11 12 8 6 6 4 2 5 6 7 6 8 8 10 9 11 11 11 10 11 9
5 5 11 22 17 6 12 11 8 9 10 13 15 20 18 18 19 17 17 15 16 18 16 12 7 6 12 7 3 2 7 6 6 8 7 8 11 10 11 12 12 11 12 10
3 7 20 13 8 14 1 4 5 9 12 14 14 15 16 15 16 18 18 15 15 16 19 16 7 6 9 6 1 1 5 8 9 9 8 9 11 12 10 12 11 11 11 10
5 8 13 17 15 8 5 9 9 5 9 12 14 15 16 16 17 15 15 16 16 17 18 17 14 6 8 6 5 4 6 7 7 13 13 12 9 10 10 11 10 10 12 11
11 17 18 13 9 3 8 3 9 12 12 12 11 16 16 17 18 17 17 15 16 16 17 19 17 16 12 7 7 8 8 7 8 9 11 11 13 13 13 13 16 15 13 13
16 18 14 17 12 7 3 7 8 11 14 16 14 17 16 16 16 16 17 16 16 19 20 19 16 18 18 8 9 10 10 8 9 9 9 10 9 6 18 17 24 22 18 12
18 6 6 12 13 1 9 13 13 14 15 17 16 14 15 17 18 19 19 18 17 19 20 19 18 21 17 15 10 13 13 11 9 10 10 11 10 11 12 13 20 22 23 24
3 5 11 3 6 14 14 14 15 16 15 14 15 13 13 14 18 17 17 16 18 20 22 19 20 23 16 17 18 16 14 14 10 11 11 10 11 12 11 12 14 12 21 23
5 6 9 14 14 11 12 13 18 19 17 17 12 13 13 17 19 20 19 18 19 22 23 20 21 24 15 15 19 16 12 10 11 10 9 11 10 11 10 11 12 12 13 19
11 9 8 9 15 14 14 15 16 20 19 20 18 17 17 18 20 20 19 18 19 19 20 20 22 21 18 16 17 13 11 13 12 9 9 10 10 11 12 12 14 13 13 13
8 8 12 16 13 17 16 15 16 19 22 21 21 20 20 19 20 19 18 17 18 21 21 21 25 21 19 17 17 13 9 9 13 9 10 10 11 12 11 12 12 12 10 10
8 12 13 15 18 20 23 20 19 20 21 22 21 20 20 19 20 20 19 19 20 21 20 22 22 22 20 17 16 12 9 9 10 10 10 11 11 10 11 11 11 11 10 13
9 13 15 17 16 18 19 21 20 20 20 20 20 20 20 20 19 19 18 18 18 19 18 18 23 23 18 15 14 9 7 9 9 9 10 13 11 10 11 11 11 12 13 11
14 13 15 17 16 17 18 17 20 19 18 17 18 18 19 17 15 16 16 16 14 12 16 16 13 6 2 5 10 7 9 10 10 9 9 10 10 10 10 13 13 12 11 9
14 15 15 16 16 16 16 16 16 17 17 17 17 16 16 16 15 14 12 9 11 12 13 12 9 6 7 8 8 7 8 9 9 9 10 10 11 10 11 10 11 10 9 8
12 13 15 15 15 16 15 14 14 15 16 14 14 14 14 13 10 11 9 8 8 12 7 5 5 9 8 10 7 8 8 9 8 8 8 9 9 10 10 10 11 9 8 8
12 13 14 14 14 15 14 12 12 13 13 13 13 14 12 8 7 8 8 10 7 8 6 6 10 13 12 7 7 8 9 9 8 8 8 8 9 10 9 9 9 9 8 8
11 12 12 13 12 11 12 12 11 11 10 10 10 10 9 8 7 7 8 12 15 13 7 7 10 14 11 7 8 8 9 9 9 9 9 11 9 9 9 9 9 7 7 7
10 11 11 10 10 8 10 10 10 9 9 8 8 8 9 6 5 7 8 8 13 10 8 12 14 14 8 8 8 9 8 8 8 8 9 9 8 8 8 7 7 6 5 5
10 8 8 9 8 7 7 7 7 7 7 7 7 7 7 7 7 7 7 10 9 11 8 8 8 9 9 9 9 9 8 8 8 9 8 8 8 7 7 7 6 5 5 4
8 10 8 7 7 7 6 6 6 7 7 6 6 8 8 8 8 9 10 9 8 9 9 9 9 10 8 8 9 9 9 9 10 8 7 7 7 6 6 6 5 4 4 3
Wind_Direction
244 251 254 256 265 259 251 246 249 253 250 246 256 270 276 281 283 278 279 275 282 281 273 248 225 233 225 222 201 194 199 202 209 204 197 187 177 173 170 172 177 176 168 171
282 272 257 250 248 252 261 259 260 261 260 262 260 266 277 278 283 285 277 275 271 261 255 254 249 242 228 229 218 196 203 209 203 190 182 183 177 173 170 175 173 168 175 168
278 289 297 275 257 259 258 261 256 258 256 267 268 262 270 299 359 25 13 6 348 318 283 273 264 242 243 233 196 192 205 205 192 181 181 178 173 171 175 174 165 172 169 165
272 272 268 272 237 238 250 257 266 291 4 5 344 320 350 33 16 358 343 345 340 336 335 328 305 296 278 240 208 204 203 188 180 177 177 169 168 174 171 170 173 169 168 165
255 256 280 284 10 350 338 62 28 359 6 1 353 325 61 16 359 334 326 312 306 292 302 311 317 321 306 253 197 175 192 193 181 176 171 168 174 174 167 168 173 172 169 167
285 280 273 50 5 316 294 217 360 346 2 360 356 345 327 335 325 319 321 319 318 313 314 321 320 319 306 295 258 237 97 131 157 168 172 178 172 170 164 168 164 161 162 167
278 276 276 17 5 332 277 331 326 336 345 338 337 316 305 314 316 312 321 323 324 320 316 311 316 320 286 279 262 143 106 134 137 145 157 163 153 158 152 157 150 156 148 145
325 308 252 8 345 356 287 311 299 336 322 321 319 309 305 305 306 305 304 313 317 310 309 317 308 309 300 293 207 157 134 122 136 129 140 150 152 154 152 155 155 157 154 154
192 253 295 309 289 300 331 311 330 318 317 321 311 299 308 307 309 308 309 314 310 306 306 313 303 243 270 276 244 151 141 164 151 142 149 157 159 160 163 167 170 168 168 169
300 258 270 288 291 261 341 327 320 292 295 304 302 308 313 311 301 299 303 310 308 304 303 302 302 261 248 254 171 191 222 196 177 165 168 172 170 171 173 176 178 179 178 173
267 279 278 272 283 359 307 319 317 314 308 304 311 300 306 304 305 305 311 316 306 306 308 303 308 304 288 237 180 206 223 211 196 189 190 184 186 185 187 194 186 178 181 170
260 274 288 287 303 341 287 311 303 289 295 298 303 296 300 291 294 301 300 306 305 298 293 297 305 305 304 278 204 215 211 204 208 191 189 183 184 190 212 193 193 194 188 166
264 290 260 274 288 158 335 319 306 299 291 294 290 280 286 289 292 295 298 299 296 292 293 297 299 292 290 299 242 227 223 202 200 211 183 178 187 178 169 194 199 189 178 164
78 339 274 216 302 321 308 308 302 289 284 282 291 293 289 288 288 283 281 284 287 286 283 290 283 278 287 283 277 247 235 221 197 196 193 186 184 181 173 177 174 177 173 157
26 352 295 297 299 302 310 308 306 299 304 300 300 293 296 291 289 292 296 297 290 285 285 286 283 278 282 279 278 252 231 214 199 200 191 180 176 170 176 175 170 160 149 156
325 307 296 297 299 301 309 307 296 296 302 302 302 300 297 292 290 290 290 289 286 283 284 281 277 280 276 272 275 258 238 220 194 183 176 173 173 168 172 173 165 165 161 152
351 336 320 304 304 305 301 301 296 296 299 298 298 300 298 294 291 289 285 281 276 276 276 275 272 271 268 262 261 250 224 204 183 177 177 175 171 173 171 165 166 163 141 150
310 292 292 289 298 305 305 303 298 295 293 296 297 296 294 292 289 289 288 287 284 280 277 274 276 274 263 247 247 243 216 183 175 175 165 167 166 162 158 156 159 135 135 160
296 293 293 292 291 290 289 290 291 291 292 293 292 292 290 287 283 284 290 290 289 293 290 293 285 284 265 238 235 223 178 164 160 159 160 158 157 153 152 154 148 140 145 156
303 295 291 291 288 285 287 288 291 289 291 298 296 292 290 287 291 295 293 291 290 286 301 312 321 298 290 214 160 143 148 148 144 143 142 143 144 144 146 146 143 143 136 135
296 299 298 296 294 295 289 293 297 305 307 306 301 302 306 302 300 296 300 300 312 315 318 330 354 23 50 74 86 104 117 122 127 136 139 139 135 135 134 133 134 129 126 124
299 298 296 297 299 299 299 308 309 308 308 311 312 312 313 310 317 316 309 304 314 317 321 340 14 47 62 72 80 93 104 112 119 126 129 129 130 127 126 130 128 126 125 135
294 294 297 300 300 300 311 317 314 314 318 321 326 333 334 330 325 332 335 333 334 359 8 30 53 59 62 65 77 86 92 96 101 105 106 112 113 115 122 128 128 130 137 144
296 302 298 298 301 313 320 322 322 319 325 327 340 339 344 347 342 354 348 359 14 16 24 40 59 63 60 65 75 82 88 94 97 96 97 100 102 111 115 122 124 128 129 130
304 303 304 319 324 325 323 326 325 331 339 341 342 343 347 348 351 336 354 0 15 22 14 32 50 55 53 62 69 75 76 78 88 101 102 104 106 108 110 113 116 123 118 112
319 314 323 327 322 326 331 333 336 338 347 346 349 352 353 357 358 360 5 14 21 24 27 34 41 47 54 58 64 70 73 78 76 75 84 89 95 97 100 103 104 103 103 105
332 340 342 342 343 341 342 347 348 353 352 1 352 357 360 2 5 12 16 18 22 27 31 35 37 44 50 55 59 60 62 64 68 76 75 78 77 83 89 92 95 98 104 118